Date,TemperatureHighF,TemperatureAvgF,TemperatureLowF,DewpointHighF,DewpointAvgF,DewpointLowF,HumidityHigh,HumidityAvg,HumidityLow,PressureMaxIn,PressureMinIn,WindSpeedMaxMPH,WindSpeedAvgMPH,GustSpeedMaxMPH,PrecipitationSumIn
2013-1-1,39,33,32,35,33,31,100,98,81,0.00,40.00,6,2,13,0.09
2013-1-2,39,33,32,36,33,32,100,98,78,0.00,40.00,5,1,13,0.01
2013-1-3,32,31,28,32,31,28,100,100,100,0.00,40.00,1,0,3,0.00
2013-1-4,32,30,27,32,30,27,100,100,99,0.00,40.00,2,0,3,0.00
2013-1-5,32,30,28,32,30,28,100,100,100,0.00,40.00,2,0,3,0.00
2013-1-6,34,32,30,32,32,30,100,100,94,0.00,40.00,1,0,6,0.01
2013-1-7,37,34,32,34,32,31,100,94,79,0.00,40.00,6,2,13,0.01
2013-1-8,37,35,28,33,32,28,100,89,75,0.00,40.00,7,2,13,0.01
2013-1-9,28,23,19,28,23,19,100,99,97,0.00,40.00,0,0,0,0.00
2013-1-10,23,19,12,23,18,12,100,97,93,0.00,40.00,0,0,0,0.00
2013-1-11,27,26,23,27,25,23,100,100,97,0.00,40.00,0,0,0,0.00
2013-1-12,32,28,25,32,28,25,100,100,100,0.00,40.00,0,0,0,0.00
2013-1-13,39,34,32,37,33,32,100,96,82,0.00,40.00,6,2,15,0.01
2013-1-14,46,43,37,38,36,34,100,77,65,0.00,40.00,6,4,14,0.00
2013-1-15,43,39,34,37,35,33,100,84,72,0.00,40.00,9,4,14,0.01
2013-1-16,37,34,32,36,34,32,100,97,88,0.00,40.00,6,2,12,0.02
2013-1-17,43,37,32,37,32,24,100,83,57,0.00,40.00,5,2,10,0.01
2013-1-18,37,34,28,31,27,22,98,79,57,0.00,40.00,6,3,11,0.00
2013-1-19,28,23,19,24,11,6,82,60,52,0.00,40.00,7,5,12,0.00
2013-1-20,28,26,19,26,21,14,97,84,72,0.00,40.00,1,0,3,0.00
2013-1-21,32,30,27,32,30,26,100,100,97,0.00,40.00,1,0,5,0.02
2013-1-22,34,32,30,34,32,30,100,100,99,0.00,40.00,1,0,4,0.01
2013-1-23,32,32,32,32,32,32,100,100,100,0.00,40.00,0,0,4,0.00
2013-1-24,32,32,32,32,32,32,100,100,100,0.00,40.00,2,0,4,0.01
2013-1-25,41,35,30,35,33,30,100,92,73,0.00,40.00,8,2,12,0.01
2013-1-26,41,34,14,35,27,7,86,73,66,0.00,40.00,8,5,15,0.00
2013-1-27,12,7,1,4,-4,-8,69,62,56,0.00,40.00,9,6,17,0.00
2013-1-28,1,-2,-4,-8,-21,-25,64,39,31,0.00,40.00,11,9,17,0.00
2013-1-29,7,1,-2,5,-5,-23,92,79,36,0.00,40.00,7,3,13,0.00
2013-1-30,21,14,7,21,13,5,98,93,90,0.00,40.00,2,0,4,0.00
2013-1-31,30,26,18,30,25,17,100,99,95,0.00,40.00,1,0,3,0.00
2013-2-1,34,32,30,34,32,30,100,100,100,0.00,40.00,0,0,2,0.01
2013-2-2,32,32,32,32,32,32,100,100,100,0.00,40.00,2,0,6,0.02
2013-2-3,41,35,32,35,32,28,100,88,69,0.00,40.00,8,3,14,0.03
2013-2-4,37,35,28,33,31,28,100,84,73,0.00,40.00,8,4,14,0.00
2013-2-5,36,33,27,28,20,17,99,61,47,0.00,40.00,9,5,13,0.00
2013-2-6,36,32,30,32,26,21,99,80,55,0.00,40.00,3,1,6,0.00
2013-2-7,37,34,32,32,30,26,100,87,68,0.00,40.00,5,2,10,0.01
2013-2-8,39,37,34,36,33,29,93,83,71,0.00,40.00,8,4,17,0.00
2013-2-9,43,40,34,38,34,31,97,80,63,0.00,40.00,7,4,16,0.03
2013-2-10,41,40,39,38,33,30,91,76,65,0.00,40.00,5,4,12,0.01
2013-2-11,45,39,36,32,30,27,88,69,53,0.00,40.00,8,5,14,0.00
2013-2-12,36,32,27,32,28,23,100,87,62,0.00,40.00,5,1,10,0.00
2013-2-13,32,30,28,32,30,26,100,98,89,0.00,40.00,2,0,4,0.03
2013-2-14,41,34,32,38,33,32,100,96,73,0.00,40.00,2,1,8,0.01
2013-2-15,41,34,32,37,34,32,100,97,79,0.00,40.00,8,2,16,0.06
2013-2-16,39,38,36,37,30,22,90,76,54,0.00,40.00,8,5,13,0.01
2013-2-17,36,34,32,32,28,23,100,80,62,0.00,40.00,6,2,12,0.00
2013-2-18,34,32,32,34,32,32,100,100,96,0.00,40.00,0,0,1,0.01
2013-2-19,37,34,32,33,32,29,100,92,72,0.00,40.00,6,2,12,0.04
2013-2-20,39,37,34,34,31,29,98,78,66,0.00,40.00,8,5,13,0.00
2013-2-21,36,33,32,34,33,32,100,99,90,0.00,40.00,2,0,6,0.02
2013-2-22,39,33,32,35,32,31,100,96,76,0.00,40.00,2,0,7,0.01
2013-2-23,37,36,32,32,28,24,100,74,63,0.00,40.00,5,3,15,0.00
2013-2-24,39,35,30,32,30,27,97,81,65,0.00,40.00,7,3,13,0.00
2013-2-25,37,33,28,32,30,27,100,90,65,0.00,40.00,2,1,7,0.00
2013-2-26,37,33,30,29,22,14,95,67,39,0.00,40.00,7,3,12,0.00
2013-2-27,36,33,32,33,31,25,100,92,76,0.00,40.00,3,1,6,0.01
2013-2-28,37,34,32,36,33,31,100,98,79,0.00,40.00,6,1,12,0.07
2013-3-1,39,35,32,36,33,29,100,93,71,0.00,40.00,5,2,10,0.01
2013-3-2,39,33,28,36,31,28,100,95,64,0.00,40.00,3,1,6,0.02
2013-3-3,37,30,25,32,27,21,100,91,64,0.00,40.00,2,1,5,0.00
2013-3-4,41,29,23,28,24,18,100,83,39,0.00,40.00,4,1,8,0.01
2013-3-5,39,29,19,27,17,7,96,68,26,0.00,40.00,5,2,9,0.00
2013-3-6,39,28,21,25,21,15,98,80,41,0.00,40.00,3,1,6,0.00
2013-3-7,37,28,19,27,22,18,98,80,46,0.00,40.00,3,1,10,0.00
2013-3-8,41,33,27,31,26,22,98,78,53,0.00,40.00,5,2,10,0.00
2013-3-9,37,35,32,36,33,30,100,94,74,0.00,40.00,3,1,8,0.04
2013-3-10,39,36,32,33,30,27,100,81,62,0.00,40.00,9,5,14,0.01
2013-3-11,36,33,32,35,32,30,100,97,83,0.00,40.00,1,0,4,0.05
2013-3-12,32,28,21,32,8,-3,99,44,27,0.00,40.00,7,5,18,0.00
2013-3-13,23,20,18,0,-5,-9,43,32,27,0.00,40.00,7,5,13,0.00
2013-3-14,23,19,16,-2,-4,-7,41,34,29,0.00,40.00,11,7,17,0.00
2013-3-15,23,20,16,11,1,-6,64,43,31,0.00,40.00,10,7,17,0.00
2013-3-16,28,23,18,13,9,2,74,55,39,0.00,40.00,5,3,10,0.00
2013-3-17,28,23,18,8,3,-1,64,42,29,0.00,40.00,7,4,13,0.00
2013-3-18,30,19,7,20,7,-3,87,61,26,0.00,40.00,3,1,7,0.00
2013-3-19,30,26,21,21,10,3,89,54,32,0.00,40.00,9,4,14,0.00
2013-3-20,25,21,18,3,-6,-10,38,29,22,0.00,40.00,11,7,16,0.00
2013-3-21,25,20,14,3,-7,-11,62,30,22,0.00,40.00,8,5,12,0.00
2013-3-22,30,19,7,22,9,-4,84,66,33,0.00,40.00,3,1,7,0.00
2013-3-23,32,30,27,32,26,21,100,87,75,0.00,40.00,2,0,6,0.00
2013-3-24,37,32,30,35,31,28,100,96,86,0.00,40.00,1,0,3,0.01
2013-3-25,41,34,32,37,32,30,100,93,73,0.00,40.00,6,1,13,0.07
2013-3-26,37,36,34,30,25,21,77,67,60,0.00,40.00,6,4,12,0.01
2013-3-27,39,35,32,22,20,17,60,54,41,0.00,40.00,5,3,12,0.00
2013-3-28,37,35,30,27,22,18,81,60,45,0.00,40.00,4,2,10,0.00
2013-3-29,37,33,28,30,26,20,90,75,56,0.00,40.00,3,1,10,0.00
2013-3-30,39,37,36,37,32,-100,100,84,61,0.00,40.00,4,2,11,0.01
2013-3-31,43,38,34,36,34,31,100,88,64,0.00,40.00,2,1,7,0.00
2013-4-1,36,33,32,34,32,30,100,97,81,0.00,40.00,7,1,13,0.04
2013-4-2,43,38,32,32,30,26,98,73,51,0.00,40.00,9,5,14,0.00
2013-4-3,45,35,30,33,30,25,100,83,48,0.00,40.00,3,1,7,0.02
2013-4-4,34,32,27,29,10,-1,98,47,22,0.00,40.00,8,4,16,0.00
2013-4-5,32,29,25,12,4,-1,49,35,27,0.00,40.00,9,5,14,0.00
2013-4-6,34,30,27,32,22,8,99,73,45,0.00,40.00,4,2,8,0.01
2013-4-7,50,38,32,36,31,25,100,81,38,0.00,40.00,5,1,8,0.01
2013-4-8,46,36,32,39,33,30,100,89,57,0.00,40.00,4,1,9,0.07
2013-4-9,43,35,32,34,30,21,100,84,56,0.00,40.00,5,2,10,0.09
2013-4-10,39,35,34,28,23,19,73,59,43,0.00,40.00,5,3,11,0.00
2013-4-11,39,36,32,29,23,20,87,61,46,0.00,40.00,5,4,10,0.00
2013-4-12,41,36,30,30,20,12,93,56,30,0.00,40.00,8,4,16,0.00
2013-4-13,43,36,30,24,12,4,74,39,25,0.00,40.00,8,4,14,0.00
2013-4-14,45,37,30,24,15,9,79,44,25,0.00,40.00,9,4,13,0.00
2013-4-15,46,36,27,30,22,11,88,61,25,0.00,40.00,4,1,8,0.00
2013-4-16,37,35,32,35,30,27,100,85,67,0.00,40.00,7,2,12,0.04
2013-4-17,41,35,32,39,34,32,100,97,87,0.00,40.00,4,1,7,0.08
2013-4-18,43,36,32,34,28,17,100,78,46,0.00,40.00,4,2,9,0.00
2013-4-19,39,34,30,23,11,4,73,39,24,0.00,40.00,6,4,13,0.00
2013-4-20,43,35,27,27,16,7,80,50,25,0.00,40.00,7,3,12,0.00
2013-4-21,46,34,23,30,20,14,92,63,29,0.00,40.00,4,1,10,0.00
2013-4-22,39,34,28,34,30,25,94,82,69,0.00,40.00,4,2,11,0.00
2013-4-23,45,38,32,32,30,27,98,73,50,0.00,40.00,7,2,13,0.00
2013-4-24,45,41,37,39,36,30,98,81,65,0.00,40.00,8,3,15,0.04
2013-4-25,39,35,32,38,35,32,100,99,94,0.00,40.00,3,1,8,0.01
2013-4-26,34,34,32,34,28,23,100,80,64,0.00,40.00,7,3,12,0.00
2013-4-27,36,33,30,32,28,19,99,81,51,0.00,40.00,5,2,9,0.00
2013-4-28,34,33,30,31,11,-3,97,43,21,0.00,40.00,8,5,15,0.00
2013-4-29,41,31,25,20,7,-2,66,40,21,0.00,40.00,4,2,9,0.00
2013-4-30,39,34,28,31,27,20,96,78,66,0.00,40.00,5,2,10,0.01
2013-5-1,45,38,34,37,33,30,98,83,69,0.00,40.00,7,4,14,0.01
2013-5-2,54,48,45,39,37,34,75,65,55,0.00,40.00,8,5,16,0.00
2013-5-3,54,48,43,43,38,36,99,69,54,0.00,40.00,9,6,15,0.01
2013-5-4,57,50,43,48,42,38,97,76,59,0.00,40.00,6,4,13,0.03
2013-5-5,52,48,41,42,38,35,99,71,56,0.00,40.00,6,3,13,0.00
2013-5-6,52,44,37,40,37,35,97,77,52,0.00,40.00,4,2,10,0.00
2013-5-7,57,45,32,38,32,28,98,65,33,0.00,40.00,5,2,8,0.00
2013-5-8,61,47,32,38,30,19,95,59,20,0.00,40.00,5,2,10,0.00
2013-5-9,64,50,32,36,29,23,94,53,22,0.00,40.00,7,3,12,0.00
2013-5-10,64,52,36,37,30,-100,87,51,25,0.00,40.00,5,2,7,0.00
2013-5-11,50,44,36,46,39,-100,100,86,68,0.00,40.00,3,1,5,0.04
2013-5-12,50,45,41,46,43,41,100,93,80,0.00,40.00,3,1,6,0.01
2013-5-13,54,46,41,45,42,38,100,90,56,0.00,40.00,5,2,13,0.04
2013-5-14,55,49,43,43,39,37,100,68,54,0.00,40.00,6,4,10,0.00
2013-5-15,55,49,43,41,35,29,80,59,36,0.00,40.00,7,4,14,0.00
2013-5-16,57,43,36,40,22,-100,93,66,45,0.00,40.00,5,2,10,0.00
2013-5-17,52,46,41,46,40,-100,100,88,73,0.00,40.00,3,1,9,0.01
2013-5-18,54,45,41,45,39,29,100,80,45,0.00,40.00,4,2,11,0.10
2013-5-19,48,42,36,34,30,23,91,61,39,0.00,40.00,4,2,11,0.00
2013-5-20,50,41,32,34,22,11,100,54,22,0.00,40.00,6,3,13,0.01
2013-5-21,61,49,30,34,21,17,90,40,19,0.00,40.00,7,4,13,0.00
2013-5-22,57,51,36,42,32,24,84,51,37,0.00,40.00,5,3,10,0.00
2013-5-23,68,52,32,38,31,26,98,55,22,0.00,40.00,6,3,11,0.00
2013-5-24,66,56,43,45,37,28,81,52,24,0.00,40.00,6,3,10,0.00
2013-5-25,59,52,43,46,42,39,90,69,51,0.00,40.00,5,2,10,0.00
2013-5-26,63,51,37,49,42,37,100,75,52,0.00,40.00,6,2,11,0.00
2013-5-27,75,57,43,54,43,40,92,64,30,0.00,40.00,3,2,6,0.00
2013-5-28,73,58,43,49,42,39,88,59,31,0.00,40.00,4,2,7,0.00
2013-5-29,75,62,45,51,45,40,93,58,28,0.00,40.00,6,3,12,0.00
2013-5-30,59,53,46,51,48,46,99,83,66,0.00,40.00,4,2,9,0.01
2013-5-31,48,47,45,48,46,44,100,96,91,0.00,40.00,3,1,5,0.05
2013-6-1,50,46,43,45,42,40,100,89,74,0.00,40.00,4,2,10,0.01
2013-6-2,54,48,43,46,42,39,100,81,61,0.00,40.00,3,1,6,0.00
2013-6-3,59,48,36,46,41,36,100,79,48,0.00,40.00,4,2,9,0.00
2013-6-4,57,50,45,46,43,36,100,78,46,0.00,40.00,3,2,8,0.01
2013-6-5,52,50,45,43,40,37,87,69,58,0.00,40.00,4,2,10,0.00
2013-6-6,61,52,43,43,39,30,97,65,32,0.00,40.00,4,2,7,0.00
2013-6-7,59,52,45,47,44,41,99,77,52,0.00,40.00,3,2,9,0.01
2013-6-8,61,52,41,49,43,40,99,74,52,0.00,40.00,5,2,8,0.00
2013-6-9,64,56,46,53,48,46,100,76,53,0.00,40.00,4,2,8,0.02
2013-6-10,73,60,45,53,46,42,95,63,38,0.00,40.00,3,1,6,0.00
2013-6-11,79,64,46,51,43,37,91,53,22,0.00,40.00,5,3,10,0.00
2013-6-12,72,62,46,51,46,41,91,59,38,0.00,40.00,5,2,8,0.00
2013-6-13,61,55,48,48,46,42,92,70,54,0.00,40.00,3,2,6,0.00
2013-6-14,70,56,45,53,45,41,95,69,38,0.00,40.00,2,1,5,0.00
2013-6-15,84,66,46,54,44,39,91,52,21,0.00,40.00,3,2,7,0.00
2013-6-16,82,67,50,52,46,38,85,52,23,0.00,40.00,4,2,7,0.00
2013-6-17,82,66,52,53,44,29,99,51,19,0.00,40.00,5,2,10,0.01
2013-6-18,70,58,48,56,47,35,99,70,41,0.00,40.00,5,2,8,0.01
2013-6-19,79,64,52,60,48,43,98,62,33,0.00,40.00,4,1,8,0.04
2013-6-20,68,57,52,58,54,52,100,91,57,0.00,40.00,2,1,5,0.01
2013-6-22,59,56,50,54,52,48,98,86,77,0.00,40.00,3,1,6,0.00
2013-6-23,68,59,50,55,52,49,99,80,56,0.00,40.00,2,1,6,0.00
2013-6-24,84,62,46,60,49,42,97,69,30,0.00,40.00,2,1,6,0.09
2013-6-25,68,59,52,61,57,52,100,93,68,0.00,40.00,3,1,8,0.05
2013-6-26,61,56,54,57,54,51,100,93,75,0.00,40.00,3,1,6,0.09
2013-6-27,55,53,52,55,52,51,100,98,95,0.00,40.00,1,0,4,0.01
2013-6-28,66,56,50,57,52,49,100,89,59,0.00,40.00,2,1,5,0.00
2013-6-29,63,54,45,59,49,45,100,86,61,0.00,40.00,3,1,7,0.00
2013-6-30,73,58,45,57,48,45,100,74,38,0.00,40.00,2,1,6,0.00
2013-7-1,57,53,48,55,52,46,99,95,83,0.00,40.00,2,1,5,0.01
2013-7-2,59,55,50,52,47,45,99,75,62,0.00,40.00,4,2,10,0.00
2013-7-3,57,54,50,51,48,46,98,81,68,0.00,40.00,4,2,7,0.01
2013-7-4,57,52,48,53,48,45,100,85,68,0.00,40.00,3,2,6,0.01
2013-7-5,59,53,48,50,48,45,99,82,64,0.00,40.00,2,1,8,0.01
2013-7-6,57,54,52,50,48,46,93,82,67,0.00,40.00,3,1,6,0.00
2013-7-7,57,53,50,52,49,47,98,87,69,0.00,40.00,1,0,4,0.01
2013-7-8,63,53,48,57,51,48,100,93,63,0.00,40.00,3,1,9,0.02
2013-7-9,55,52,46,49,46,43,99,81,64,0.00,40.00,3,2,8,0.00
2013-7-10,63,54,45,51,43,-100,100,71,52,0.00,40.00,5,2,8,0.00
2013-7-11,57,52,43,52,48,43,100,87,72,0.00,40.00,2,1,5,0.00
2013-7-12,63,54,46,54,49,46,100,85,64,0.00,40.00,4,1,12,0.00
2013-7-13,64,57,50,54,49,43,99,79,48,0.00,40.00,5,2,9,0.04
2013-7-14,64,55,41,53,46,40,100,75,50,0.00,40.00,5,2,9,0.00
2013-7-15,64,55,45,51,48,44,98,78,58,0.00,40.00,5,2,7,0.00
2013-7-16,68,63,54,59,52,46,95,70,57,0.00,40.00,3,1,6,0.00
2013-7-17,72,61,48,58,53,47,99,76,50,0.00,40.00,5,2,9,0.00
2013-7-18,66,61,48,54,52,48,99,72,62,0.00,40.00,4,3,10,0.00
2013-7-19,59,57,55,54,52,51,87,84,77,0.00,40.00,3,2,8,0.00
2013-7-20,57,55,54,56,51,-100,99,91,83,0.00,40.00,2,1,7,0.01
2013-7-21,57,54,52,55,52,51,100,95,84,0.00,40.00,3,1,7,0.02
2013-7-22,64,56,50,57,52,50,100,88,66,0.00,40.00,3,2,7,0.00
2013-7-23,73,60,52,61,54,49,100,82,51,0.00,40.00,2,1,6,0.00
2013-7-24,59,54,46,55,52,46,100,91,78,0.00,40.00,3,2,6,0.12
2013-7-25,61,56,52,54,53,50,100,91,73,0.00,40.00,3,1,6,0.00
2013-7-26,59,55,52,53,51,49,97,86,71,0.00,40.00,3,1,7,0.00
2013-7-27,68,58,52,57,52,50,98,84,63,0.00,40.00,2,1,5,0.00
2013-7-28,81,61,48,62,53,47,100,79,40,0.00,40.00,3,1,5,0.00
2013-7-29,75,63,50,58,53,49,97,72,45,0.00,40.00,3,1,6,0.00
2013-7-30,70,64,50,61,54,49,98,72,55,0.00,40.00,4,2,8,0.00
2013-7-31,70,61,48,58,53,48,100,78,58,0.00,40.00,5,2,9,0.00
2013-8-1,72,63,50,60,54,49,99,76,53,0.00,40.00,5,2,8,0.00
2013-8-2,70,60,46,58,53,46,100,79,56,0.00,40.00,4,2,9,0.00
2013-8-3,64,58,48,58,53,48,100,84,69,0.00,40.00,3,1,7,0.00
2013-8-4,59,56,54,57,54,50,99,91,81,0.00,40.00,3,1,6,0.01
2013-8-5,61,56,52,56,54,52,100,93,79,0.00,40.00,3,1,6,0.01
2013-8-6,68,60,52,58,53,49,99,79,57,0.00,40.00,5,2,9,0.00
2013-8-7,70,58,48,57,50,47,98,80,48,0.00,40.00,3,1,7,0.00
2013-8-8,59,54,50,58,53,49,100,96,92,0.00,40.00,2,1,5,0.02
2013-8-9,64,57,54,55,52,47,100,85,55,0.00,40.00,4,1,7,0.01
2013-8-10,66,58,46,53,50,46,100,76,54,0.00,40.00,4,2,7,0.00
2013-8-11,68,57,45,58,50,45,100,82,55,0.00,40.00,3,1,8,0.00
2013-8-12,72,62,48,60,52,48,99,74,49,0.00,40.00,3,1,6,0.00
2013-8-13,70,59,46,56,50,-100,100,76,55,0.00,40.00,5,2,9,0.00
2013-8-14,68,60,54,57,52,-100,99,83,63,0.00,40.00,5,1,9,0.00
2013-8-15,70,56,48,56,44,-100,99,76,60,0.00,40.00,4,2,7,0.00
2013-8-16,61,56,55,56,53,-100,99,91,83,0.00,40.00,3,2,7,0.01
2013-8-17,63,55,52,55,52,-100,100,90,69,0.00,40.00,1,0,3,0.01
2013-8-18,59,54,50,53,50,46,100,88,62,0.00,40.00,3,1,9,0.01
2013-8-19,57,51,50,50,41,-100,97,84,69,0.00,40.00,3,2,6,0.01
2013-8-20,59,55,52,51,47,-100,92,76,63,0.00,40.00,4,3,9,0.00
2013-8-21,55,53,50,52,50,47,98,89,76,0.00,40.00,3,2,7,0.01
2013-8-22,55,52,50,53,51,49,100,94,84,0.00,40.00,2,1,5,0.01
2013-8-23,54,53,50,52,50,47,97,91,85,0.00,40.00,2,1,6,0.00
2013-8-24,54,51,50,53,49,-100,100,96,88,0.00,40.00,3,1,6,0.02
2013-8-25,61,53,48,55,51,48,100,95,81,0.00,40.00,4,1,7,0.02
2013-8-26,59,54,50,57,53,50,100,96,84,0.00,40.00,2,1,6,0.01
2013-8-27,61,50,46,51,49,46,100,95,59,0.00,40.00,3,2,7,0.01
2013-8-28,59,55,52,55,53,51,100,93,81,0.00,40.00,1,0,4,0.00
2013-8-29,66,54,46,55,50,46,100,87,58,0.00,40.00,2,1,6,0.00
2013-8-30,61,52,43,55,48,43,100,88,58,0.00,40.00,3,1,7,0.01
2013-8-31,55,54,52,55,52,-100,100,97,93,0.00,40.00,1,1,5,0.06
2013-9-1,55,54,52,55,53,52,100,99,93,0.00,40.00,2,1,6,0.15
2013-9-2,59,54,50,56,53,50,100,95,73,0.00,40.00,2,1,7,0.01
2013-9-3,63,56,50,57,51,48,100,86,64,0.00,40.00,3,1,10,0.02
2013-9-4,63,58,52,53,51,49,100,81,68,0.00,40.00,4,2,10,0.01
2013-9-5,59,55,50,53,50,48,99,85,74,0.00,40.00,5,2,9,0.01
2013-9-6,55,52,50,55,52,50,100,99,92,0.00,40.00,1,0,5,0.00
2013-9-7,64,60,55,59,54,-100,99,84,71,0.00,40.00,5,2,11,0.01
2013-9-8,59,57,55,57,48,43,100,75,62,0.00,40.00,4,2,11,0.05
2013-9-9,55,52,48,50,46,42,97,81,61,0.00,40.00,5,2,10,0.01
2013-9-10,54,50,46,49,47,45,100,91,77,0.00,40.00,1,0,4,0.01
2013-9-11,66,55,48,57,52,48,100,88,66,0.00,40.00,4,2,9,0.01
2013-9-12,61,54,48,57,52,48,100,93,73,0.00,40.00,4,1,9,0.00
2013-9-13,57,51,46,51,48,45,100,90,68,0.00,40.00,3,1,6,0.01
2013-9-14,57,51,48,51,47,-100,99,89,68,0.00,40.00,2,1,4,0.01
2013-9-15,70,58,43,48,45,43,100,66,41,0.00,40.00,7,3,11,0.01
2013-9-16,64,53,48,55,50,44,100,91,48,0.00,40.00,7,1,11,0.01
2013-9-17,50,48,46,49,47,46,100,98,91,0.00,40.00,1,0,3,0.01
2013-9-18,48,46,45,48,46,45,100,100,98,0.00,40.00,0,0,1,0.01
2013-9-19,52,46,43,50,46,43,100,98,87,0.00,40.00,2,1,6,0.01
2013-9-20,50,47,45,49,46,44,100,99,97,0.00,40.00,3,1,5,0.01
2013-9-21,52,47,45,48,43,-100,100,89,63,0.00,40.00,3,1,9,0.02
2013-9-22,54,46,43,50,45,43,100,95,77,0.00,40.00,2,1,5,0.01
2013-9-23,54,47,45,49,45,42,100,93,69,0.00,40.00,2,1,9,0.06
2013-9-24,55,47,39,48,44,39,100,93,68,0.00,40.00,2,0,4,0.01
2013-9-25,48,40,32,46,39,32,100,95,80,0.00,40.00,2,0,4,0.01
2013-9-26,52,48,46,49,46,42,99,91,75,0.00,40.00,5,2,12,0.01
2013-9-27,48,46,45,46,44,41,100,95,79,0.00,40.00,4,1,8,0.01
2013-9-28,55,47,43,47,42,-100,100,86,55,0.00,40.00,4,1,8,0.01
2013-9-29,54,50,45,46,41,38,95,72,56,0.00,40.00,4,2,10,0.01
2013-9-30,55,51,45,44,38,32,97,63,48,0.00,40.00,5,3,10,0.01
2013-10-1,48,46,45,47,46,45,100,98,94,0.00,40.00,1,0,3,0.00
2013-10-2,50,45,43,49,45,43,100,97,82,0.00,40.00,1,0,3,0.01
2013-10-3,46,44,41,46,44,41,100,100,98,0.00,40.00,1,0,2,0.01
2013-10-4,46,43,41,46,43,41,100,99,90,0.00,40.00,1,0,5,0.01
2013-10-5,48,45,43,46,44,42,100,97,83,0.00,40.00,2,1,7,0.01
2013-10-6,52,42,36,45,40,36,100,93,56,0.00,40.00,2,1,6,0.01
2013-10-7,46,38,34,43,37,34,100,97,76,0.00,40.00,2,0,4,0.01
2013-10-8,48,39,32,44,36,32,100,92,69,0.00,40.00,4,1,8,0.01
2013-10-9,48,46,45,44,41,36,91,81,68,0.00,40.00,7,4,13,0.01
2013-10-10,50,45,41,43,40,37,100,84,65,0.00,40.00,5,2,11,0.00
2013-10-11,48,47,46,42,41,39,85,79,72,0.00,40.00,5,3,11,0.01
2013-10-12,48,45,43,43,40,-100,94,83,73,0.00,40.00,4,2,9,0.01
2013-10-13,48,44,41,46,42,39,99,92,77,0.00,40.00,3,1,8,0.01
2013-10-14,52,48,46,48,44,37,100,89,64,0.00,40.00,6,2,11,0.01
2013-10-15,50,46,45,43,41,39,93,81,72,0.00,40.00,6,3,11,0.01
2013-10-16,48,46,43,44,42,41,96,88,80,0.00,40.00,3,1,8,0.01
2013-10-17,45,39,32,42,38,32,100,95,81,0.00,40.00,2,0,6,0.00
2013-10-18,46,45,43,44,41,37,97,87,80,0.00,40.00,5,2,12,0.01
2013-10-19,55,49,45,46,43,-100,100,83,69,0.00,40.00,6,4,14,0.01
2013-10-20,54,51,46,47,45,36,96,81,58,0.00,40.00,8,3,14,0.01
2013-10-21,50,41,32,42,38,32,100,90,59,0.00,40.00,8,1,14,0.00
2013-10-22,43,34,30,38,33,30,100,98,80,0.00,40.00,2,0,4,0.03
2013-10-23,52,37,34,44,36,34,100,98,75,0.00,40.00,5,1,11,0.02
2013-10-24,52,46,41,44,41,36,100,85,58,0.00,40.00,6,2,11,0.04
2013-10-25,50,46,41,46,43,40,100,90,76,0.00,40.00,7,2,12,0.01
2013-10-26,50,44,34,47,41,-100,100,93,76,0.00,40.00,4,1,9,0.00
2013-10-27,41,35,32,40,35,32,100,100,96,0.00,40.00,1,0,4,0.01
2013-10-28,50,39,37,42,38,32,100,97,49,0.00,40.00,4,1,11,0.00
2013-10-29,46,45,41,42,40,37,99,84,76,0.00,40.00,7,4,12,0.01
2013-10-30,48,43,41,43,41,39,100,92,72,0.00,40.00,6,2,12,0.00
2013-10-31,50,45,41,41,37,34,100,73,61,0.00,40.00,7,4,15,0.00
2013-11-1,45,43,37,39,36,34,100,76,65,0.00,40.00,7,4,13,0.01
2013-11-2,43,36,30,38,34,-100,100,96,79,0.00,40.00,1,0,4,0.00
2013-11-3,37,31,28,35,31,28,100,98,76,0.00,40.00,1,0,3,0.01
2013-11-4,34,30,27,34,30,27,100,100,100,0.00,40.00,1,0,4,0.00
2013-11-5,37,34,32,37,34,32,100,100,100,0.00,40.00,2,1,4,0.08
2013-11-6,41,36,32,34,30,26,100,80,54,0.00,40.00,6,2,11,0.04
2013-11-7,37,34,32,33,28,15,100,81,50,0.00,40.00,7,1,10,0.00
2013-11-8,32,30,28,17,13,11,55,48,43,0.00,40.00,8,6,12,0.00
2013-11-9,30,23,18,18,15,-100,96,75,47,0.00,40.00,5,1,9,0.00
2013-11-10,36,27,18,32,25,17,98,92,84,0.00,40.00,3,1,7,0.00
2013-11-11,37,33,28,35,32,28,100,97,85,0.00,40.00,2,0,6,0.01
2013-11-12,37,35,28,30,22,17,100,62,49,0.00,40.00,7,5,11,0.01
2013-11-13,32,31,30,29,25,19,89,76,58,0.00,40.00,5,1,11,0.00
2013-11-14,41,36,32,37,34,29,100,90,73,0.00,40.00,6,2,11,0.12
2013-11-15,32,31,28,32,26,12,100,84,43,0.00,40.00,6,2,10,0.00
2013-11-16,27,25,23,14,6,-100,68,45,37,0.00,40.00,7,4,12,0.00
2013-11-17,23,20,16,4,-1,-6,44,38,33,0.00,40.00,6,5,13,0.00
2013-11-18,16,14,10,-5,-7,-10,42,38,34,0.00,40.00,7,5,13,0.00
2013-11-19,10,9,7,-2,-9,-12,60,42,38,0.00,40.00,8,6,14,0.00
2013-11-20,12,11,9,3,-3,-9,76,54,38,0.00,40.00,8,3,13,0.00
2013-11-21,16,14,12,15,4,-6,96,65,43,0.00,40.00,9,6,17,0.00
2013-11-22,43,29,16,37,26,15,100,92,80,0.00,40.00,8,4,16,0.12
2013-11-23,39,34,32,35,29,-100,100,85,55,0.00,40.00,8,3,16,0.01
2013-11-24,32,29,19,31,28,19,100,97,89,0.00,40.00,2,1,4,0.00
2013-11-25,28,25,18,28,24,17,100,99,96,0.00,40.00,1,0,3,0.00
2013-11-26,32,30,28,32,30,28,100,100,100,0.00,40.00,0,0,2,0.01
2013-11-27,32,32,30,32,32,30,100,100,100,0.00,40.00,0,0,2,0.02
2013-11-28,41,37,32,36,32,28,100,82,64,0.00,40.00,5,3,11,0.05
2013-11-29,41,32,21,34,21,5,81,65,49,0.00,40.00,11,6,15,0.00
2013-11-30,21,17,14,7,0,-100,54,48,43,0.00,40.00,11,8,18,0.00
2013-12-1,18,14,12,-3,-6,-10,45,39,35,0.00,40.00,10,8,16,0.00
2013-12-2,19,18,16,11,1,-5,69,46,36,0.00,40.00,9,5,17,0.00
2013-12-3,18,13,9,17,12,7,97,95,93,0.00,40.00,1,0,3,0.00
2013-12-4,19,16,14,19,15,13,98,97,96,0.00,40.00,1,0,2,0.00
2013-12-5,18,13,9,16,12,7,96,95,94,0.00,40.00,0,0,3,0.00
2013-12-6,19,13,7,19,12,5,98,95,93,0.00,40.00,0,0,2,0.00
2013-12-7,27,22,18,26,20,-100,99,97,95,0.00,40.00,0,0,2,0.00
2013-12-8,25,18,14,25,17,13,99,97,95,0.00,40.00,1,0,4,0.00
2013-12-9,28,26,25,28,26,24,100,100,98,0.00,40.00,0,0,2,0.00
2013-12-10,30,29,27,30,29,27,100,100,100,0.00,40.00,0,0,1,0.00
2013-12-11,32,30,23,32,21,8,100,70,50,0.00,40.00,9,5,15,0.00
2013-12-12,23,20,19,9,4,1,63,49,41,0.00,40.00,10,7,17,0.00
2013-12-13,19,19,18,19,17,6,99,92,56,0.00,40.00,1,0,3,0.00
2013-12-14,43,33,19,40,30,-100,100,93,71,0.00,40.00,6,2,14,0.05
2013-12-15,37,34,32,32,26,22,98,72,62,0.00,40.00,6,4,13,0.00
2013-12-16,34,31,23,29,22,11,88,72,59,0.00,40.00,11,4,15,0.00
2013-12-17,23,16,0,11,0,-6,87,49,40,0.00,40.00,11,7,16,0.00
2013-12-18,1,-2,-6,-1,-5,-9,90,89,87,0.00,40.00,1,0,3,0.00
2013-12-19,16,9,1,15,8,-1,97,94,90,0.00,40.00,1,0,4,0.00
2013-12-20,7,4,3,5,2,1,93,92,91,0.00,40.00,0,0,4,0.00
2013-12-21,19,13,0,19,11,-100,99,95,91,0.00,40.00,0,0,2,0.00
2013-12-22,27,23,19,27,23,19,100,100,98,0.00,40.00,0,0,1,0.00
2013-12-23,37,32,27,32,29,27,100,89,72,0.00,40.00,6,2,15,0.07
2013-12-24,36,24,23,29,21,15,99,87,67,0.00,40.00,7,1,15,0.00
2013-12-25,28,25,23,28,25,23,100,100,99,0.00,40.00,0,0,0,0.00
2013-12-26,28,28,25,28,27,24,100,100,98,0.00,40.00,0,0,0,0.00
2013-12-27,19,18,18,16,11,9,95,75,67,0.00,40.00,6,4,10,0.00
2013-12-28,23,20,18,23,19,-100,100,97,94,0.00,40.00,0,0,2,0.00
2013-12-29,23,16,9,23,15,7,100,97,94,0.00,40.00,0,0,3,0.00
2013-12-30,27,24,19,22,20,17,99,85,68,0.00,40.00,5,2,10,0.00
2013-12-31,27,25,23,27,25,22,100,100,97,0.00,40.00,0,0,2,0.00
2014-1-1,39,31,27,34,30,27,100,96,79,0.00,40.00,7,1,14,0.35
2014-1-2,37,33,32,34,32,29,100,96,78,0.00,40.00,7,1,12,0.01